カタログに戻る

FENGYUN 1C DEB

LostSSO
NORAD 36658·DEBRIS·🇨🇳 China

打ち上げ May 10, 1999 から Taiyuan Satellite Launch Center

Loading…

次のパス (今後24時間)

TLE

古いSource: Space-Track

元期: Sep 10, 2022, 01:17 UTC

1 36658U 99025DYC 22253.05404209  .00002223  00000-0  86676-3 0  9996
2 36658  98.7460 330.8720 0081142  28.4596 332.0981 14.28906718728141

AllMySatでFENGYUN 1C DEBをリアルタイム追跡

Download on the App Store